Weather in Houston

United States     29°45′49″N   95°21′47″W
temp.,
°C
wind,
m/s
gust,
m/s
humid.,
%
clouds,
%
prec.,
mm/h
press.,
hPa
HPBL,
m
23 may, mon
mon2301:00+23ne410825 0.0 1018560
04:00+22ene378850 0.0 1016409
07:00+21ne358746 0.0 1017340
10:00+25ne34668 0.0 1017715
13:00+29ene335046 0.0 10151409
16:00+32ese33417 0.0 10121754
19:00+29se55544 0.0 1011777
22:00+26sse38715 0.0 1012614
24 may, tue
tue2401:00+25se387982 0.0 1011822
04:00+25se498082 0.0 1008838
07:00+25se41084100 0.4 1008830
10:00+23ssw81683100 6.3 10101201
13:00+30ssw71355100 6.3 10091746
16:00+31s71248100 0.0 10071789
19:00+29sse61162100 0.0 10071327
22:00+27sse6128069 0.0 10081049
25 may, wed
wed2501:00+26sse613757 0.0 1008991
04:00+25s614762 0.0 10071077
07:00+25sse398129 0.0 10091049
10:00+23n4582100 9.8 1012289
13:00+19ne51291100 19.1 1012750
16:00+19e61096100 24.6 1011365
19:00+20ese2595100 34.6 1010355
22:00+20nnw2395100 5.6 1012219
26 may, thu
thu2601:00+20nw3696100 6.7 1013303
04:00+20wnw11930 0.1 101121
07:00+19nw12940 0.1 101265
10:00+24nnw35710 0.0 1014577
13:00+28nw35420 0.0 10131500
16:00+30wnw46360 0.0 10111880
19:00+28nw46430 0.0 10121028
22:00+25nne22530 0.0 101329
27 may, fri
fri2701:00+24nne11580 0.0 101311
04:00+22n11630 0.0 101323
07:00+22wsw12670 0.0 101435
10:00+27wsw23510 0.0 1015682
13:00+31w35410 0.0 10141444
16:00+33w34350 0.0 10122080
19:00+32w23400 0.0 10111024
22:00+27ese13580 0.0 1012103